Skip Page Navigation
NASA JPL Caltech
NASA Logo - Jet Propulsion Laboratory + View the NASA Portal
+ Center for Near-Earth Object Studies
JPL Home Earth Solar System Stars & Galaxies Technology
JPL Solar System Dynamics
BODIES ORBITS EPHEMERIDES TOOLS PHYSICAL DATA DISCOVERY FAQ SITE MAP
IMPORTANT: The SSD Announcement email list is now available. Major changes are coming in the near future, including possible hostname and/or URL changes. To be notified of such changes, subscribe to this email list.

Please visit this page for more details.


JPL Small-Body Database Browser
Search: [ help ]  
487441 (2014 RM37)
Classification: Outer Main-belt Asteroid          SPK-ID: 2487441
Ephemeris | Orbit Diagram | Orbital Elements | Mission Design | Physical Parameters | Discovery Circumstances | Close-Approach Data ]

[ show orbit diagram ]
Orbital Elements at Epoch 2459000.5 (2020-May-31.0) TDB
Reference: JPL 15 (heliocentric ecliptic J2000)
 Element Value Uncertainty (1-sigma)   Units 
e .09070907643857029 1.0426e-07  
a 3.21907315774065 1.9358e-07 au
q 2.927074004613803 2.5324e-07 au
i 16.75470406824136 9.2812e-06 deg
node 168.8637227359146 2.6037e-05 deg
peri 209.2613129299505 5.7279e-05 deg
M 336.5744399960911 5.5339e-05 deg
tp 2459137.772068507465
(2020-Oct-15.27206851)
0.00033059 TDB
period 2109.573673134871
5.78
0.00019029
5.21e-07
d
yr
n .1706505938069622 1.5393e-08 deg/d
Q 3.511072310867496 2.1114e-07 au
  Orbit Determination Parameters
   # obs. used (total)      62  
   data-arc span      3496 days (9.57 yr)  
   first obs. used      2008-09-25  
   last obs. used      2018-04-22  
   planetary ephem.      DE431  
   SB-pert. ephem.      SB431-N16  
   condition code      0  
   norm. resid. RMS      .71082  
   source      ORB  
   producer      Otto Matic  
   solution date      2018-May-07 07:09:20  

Additional Information
 Earth MOID = 1.93661 au 
 Jupiter MOID = 1.96571 au 
 T_jup = 3.117 
[ show covariance matrix ]

Ephemeris | Orbit Diagram | Orbital Elements | Mission Design | Physical Parameters | Discovery Circumstances | Close-Approach Data ]

Physical Parameter Table
Parameter Symbol Value Units Sigma Reference Notes
absolute magnitude H 16.4   n/a MPO446846  

487441 (2014 RM37)          Discovered 2014-Jul-27 by Pan-STARRS 1 at Haleakala
Reference: Last Updated: 2017-03-14

[ show close-approach data ]
Ephemeris | Orbit Diagram | Orbital Elements | Mission Design | Physical Parameters | Discovery Circumstances | Close-Approach Data ]
ABOUT SSD CREDITS/AWARDS PRIVACY/COPYRIGHT GLOSSARY LINKS
FirstGov 2020-May-29 11:37 UT
(server date/time)  
NASA Home Page
Site Manager:   Ryan S. Park
Webmaster  Alan B. Chamberlin